TimeCDT,TemperatureF,Dew PointF,Humidity,Sea Level PressureIn,VisibilityMPH,Wind Direction,Wind SpeedMPH,Gust SpeedMPH,PrecipitationIn,Events,Conditions,WindDirDegrees,DateUTC
12:52 AM,60.1,45.0,57,29.88,10.0,South,15.0,25.3,N/A,,Clear,170,2013-04-06 05:52:00
1:52 AM,60.1,45.0,57,29.88,10.0,South,17.3,23.0,N/A,,Clear,180,2013-04-06 06:52:00
2:52 AM,60.1,43.0,53,29.84,10.0,South,20.7,28.8,N/A,,Clear,180,2013-04-06 07:52:00
3:52 AM,59.0,44.1,58,29.83,10.0,South,20.7,31.1,N/A,,Clear,180,2013-04-06 08:52:00
4:52 AM,57.9,44.1,60,29.81,10.0,South,21.9,29.9,N/A,,Clear,190,2013-04-06 09:52:00
5:52 AM,57.9,43.0,58,29.80,10.0,South,25.3,35.7,N/A,,Clear,180,2013-04-06 10:52:00
7:52 AM,55.9,44.1,64,29.82,10.0,South,18.4,26.5,N/A,,Clear,170,2013-04-06 12:52:00
8:52 AM,60.1,45.0,57,29.82,10.0,SSW,25.3,41.4,N/A,,Clear,200,2013-04-06 13:52:00
9:52 AM,63.0,45.0,52,29.83,10.0,SSW,28.8,36.8,N/A,,Clear,210,2013-04-06 14:52:00
10:52 AM,66.9,44.1,44,29.83,10.0,SSW,24.2,34.5,N/A,,Clear,210,2013-04-06 15:52:00
11:52 AM,71.1,44.1,38,29.83,10.0,South,23.0,29.9,N/A,,Clear,190,2013-04-06 16:52:00
12:52 PM,75.9,45.0,33,29.82,10.0,South,18.4,26.5,N/A,,Clear,190,2013-04-06 17:52:00
1:52 PM,80.1,46.0,30,29.80,10.0,SSW,18.4,24.2,N/A,,Clear,200,2013-04-06 18:52:00
2:52 PM,81.0,46.0,29,29.77,10.0,South,15.0,18.4,N/A,,Clear,190,2013-04-06 19:52:00
3:52 PM,82.9,45.0,26,29.74,10.0,South,18.4,21.9,N/A,,Clear,180,2013-04-06 20:52:00
4:52 PM,84.0,45.0,25,29.72,10.0,SSW,13.8,-,N/A,,Clear,200,2013-04-06 21:52:00
5:52 PM,82.9,42.1,24,29.71,10.0,SSW,10.4,-,N/A,,Clear,210,2013-04-06 22:52:00
6:52 PM,82.0,46.0,28,29.71,10.0,South,13.8,-,N/A,,Clear,180,2013-04-06 23:52:00
7:52 PM,80.1,48.0,32,29.72,10.0,South,11.5,-,N/A,,Clear,170,2013-04-07 00:52:00
8:52 PM,73.9,51.1,45,29.73,10.0,SSE,10.4,-,N/A,,Clear,160,2013-04-07 01:52:00
9:52 PM,72.0,53.1,51,29.75,10.0,SSE,10.4,-,N/A,,Clear,150,2013-04-07 02:52:00
10:52 PM,70.0,54.0,57,29.76,10.0,SSE,13.8,-,N/A,,Clear,150,2013-04-07 03:52:00
11:52 PM,69.1,55.0,61,29.76,10.0,SSE,16.1,23.0,N/A,,Clear,160,2013-04-07 04:52:00